User: anonymous   Login
Location: ???????
(54.9996°N, 37.9529°E)
Time: 17:08:38
(UTC+00:00)
Language:

Meteor 1-27 Rocket - Orbit

View from above orbital plane
View from above orbital plane
View from above satellite
View from above satellite

Ground track
Ground track

The orbit data is extracted from the following two-line orbital elements,

1  9904U 77024B   24174.08993468  .00000114  00000-0  60388-4 0  9992
2  9904  81.2603 174.1021 0054866 312.9560  46.7013 14.07106677423037
Epoch (UTC): 22 June 2024 02:09:30
Eccentricity: 0.0054866
inclination: 81.2603°
perigee height: 829 km
apogee height: 909 km
right ascension of ascending node: 174.1021°
argument of perigee: 312.9560°
revolutions per day: 14.07106677
mean anomaly at epoch: 46.7013°
orbit number at epoch: 42303

The dashed part of the orbit path shows where the satellite is in the earth's shadow,  

DLR